Time,TemperatureF,DewpointF,PressureIn,WindDirection,WindDirectionDegrees,WindSpeedMPH,WindSpeedGustMPH,Humidity,HourlyPrecipIn,Conditions,Clouds,dailyrainin,SoftwareType,DateUTC
2013-06-14 00:04:00,70.5,53.6,29.24,NNE,25,2.0,2.0,55,0.00,CLR,,0.00,WeatherDisplay:10.37,2013-06-14 05:04:00,
2013-06-14 00:09:00,70.5,53.6,29.24,NNE,25,2.0,2.0,55,0.00,CLR,,0.00,WeatherDisplay:10.37,2013-06-14 05:09:00,
2013-06-14 00:14:00,70.5,53.6,29.24,NNE,25,2.0,2.0,55,0.00,CLR,,0.00,WeatherDisplay:10.37,2013-06-14 05:14:00,
2013-06-14 00:19:00,68.9,53.5,29.24,NE,45,2.0,2.0,58,0.00,CLR,,0.00,WeatherDisplay:10.37,2013-06-14 05:19:00,
2013-06-14 00:24:00,68.9,53.5,29.24,NE,56,2.0,3.0,58,0.00,CLR,,0.00,WeatherDisplay:10.37,2013-06-14 05:24:00,
2013-06-14 00:29:00,68.9,53.5,29.24,NE,54,2.0,3.0,58,0.00,CLR,,0.00,WeatherDisplay:10.37,2013-06-14 05:29:00,
2013-06-14 00:34:00,68.5,53.2,29.24,ENE,60,3.0,3.0,58,0.00,CLR,,0.00,WeatherDisplay:10.37,2013-06-14 05:34:00,
2013-06-14 00:39:00,68.5,53.2,29.24,ENE,63,3.0,3.0,58,0.00,CLR,,0.00,WeatherDisplay:10.37,2013-06-14 05:39:00,
2013-06-14 00:44:00,68.4,53.0,29.24,ENE,61,3.0,4.0,58,0.00,CLR,,0.00,WeatherDisplay:10.37,2013-06-14 05:44:00,
2013-06-14 00:49:00,68.4,53.0,29.24,ENE,60,3.0,4.0,58,0.00,CLR,,0.00,WeatherDisplay:10.37,2013-06-14 05:49:00,
2013-06-14 00:54:00,68.0,52.2,29.24,ENE,61,3.0,4.0,57,0.00,CLR,,0.00,WeatherDisplay:10.37,2013-06-14 05:54:00,
2013-06-14 00:59:00,68.0,52.2,29.26,ENE,69,3.0,4.0,57,0.00,CLR,,0.00,WeatherDisplay:10.37,2013-06-14 05:59:00,
2013-06-14 01:04:00,68.0,52.2,29.26,East,81,5.0,5.0,57,0.00,CLR,,0.00,WeatherDisplay:10.37,2013-06-14 06:04:00,
2013-06-14 01:09:00,68.0,52.2,29.26,East,95,5.0,5.0,57,0.00,CLR,,0.00,WeatherDisplay:10.37,2013-06-14 06:09:00,
2013-06-14 01:14:00,68.0,52.2,29.26,ESE,123,6.0,6.0,57,0.00,CLR,,0.00,WeatherDisplay:10.37,2013-06-14 06:14:00,
2013-06-14 01:19:00,68.0,52.2,29.26,ESE,122,6.0,6.0,57,0.00,CLR,,0.00,WeatherDisplay:10.37,2013-06-14 06:19:00,
2013-06-14 01:24:00,68.0,52.2,29.26,ESE,118,7.0,7.0,57,0.00,CLR,,0.00,WeatherDisplay:10.37,2013-06-14 06:24:00,
2013-06-14 01:29:00,67.5,53.1,29.26,ESE,122,7.0,7.0,60,0.00,CLR,,0.00,WeatherDisplay:10.37,2013-06-14 06:29:00,
2013-06-14 01:34:00,67.5,53.1,29.26,SE,125,7.0,7.0,60,0.00,CLR,,0.00,WeatherDisplay:10.37,2013-06-14 06:34:00,
2013-06-14 01:39:00,67.5,53.1,29.26,SE,126,7.0,7.0,60,0.00,CLR,,0.00,WeatherDisplay:10.37,2013-06-14 06:39:00,
2013-06-14 01:44:00,67.3,53.4,29.26,SE,129,8.0,8.0,61,0.00,CLR,,0.00,WeatherDisplay:10.37,2013-06-14 06:44:00,
2013-06-14 01:49:00,67.1,53.2,29.29,SE,124,8.0,8.0,61,0.00,CLR,,0.00,WeatherDisplay:10.37,2013-06-14 06:49:00,
2013-06-14 01:54:00,66.9,53.0,29.29,ESE,119,8.0,8.0,61,0.00,CLR,,0.00,WeatherDisplay:10.37,2013-06-14 06:54:00,
2013-06-14 01:59:00,66.7,52.9,29.29,ESE,109,8.0,8.0,61,0.00,CLR,,0.00,WeatherDisplay:10.37,2013-06-14 06:59:00,
2013-06-14 02:04:00,66.6,52.7,29.29,ESE,105,8.0,8.0,61,0.00,CLR,,0.00,WeatherDisplay:10.37,2013-06-14 07:04:00,
2013-06-14 02:09:00,66.6,52.7,29.29,ESE,105,8.0,8.0,61,0.00,CLR,,0.00,WeatherDisplay:10.37,2013-06-14 07:09:00,
2013-06-14 02:14:00,66.4,53.0,29.29,ESE,105,8.0,9.0,62,0.00,CLR,,0.00,WeatherDisplay:10.37,2013-06-14 07:14:00,
2013-06-14 02:19:00,66.4,53.0,29.32,ESE,105,8.0,9.0,62,0.00,CLR,,0.00,WeatherDisplay:10.37,2013-06-14 07:19:00,
2013-06-14 02:24:00,66.4,53.0,29.32,ESE,105,8.0,9.0,62,0.00,CLR,,0.00,WeatherDisplay:10.37,2013-06-14 07:24:00,
2013-06-14 02:29:00,66.4,53.0,29.32,ESE,105,8.0,9.0,62,0.00,CLR,,0.00,WeatherDisplay:10.37,2013-06-14 07:29:00,
2013-06-14 02:34:00,66.4,53.0,29.32,ESE,105,8.0,9.0,62,0.00,CLR,,0.00,WeatherDisplay:10.37,2013-06-14 07:34:00,
2013-06-14 02:39:00,66.4,53.0,29.32,ESE,105,8.0,9.0,62,0.00,CLR,,0.00,WeatherDisplay:10.37,2013-06-14 07:39:00,
2013-06-14 02:44:00,66.4,53.0,29.32,ESE,105,8.0,9.0,62,0.00,CLR,,0.00,WeatherDisplay:10.37,2013-06-14 07:44:00,
2013-06-14 02:49:00,66.4,53.0,29.32,ESE,105,8.0,9.0,62,0.00,CLR,,0.00,WeatherDisplay:10.37,2013-06-14 07:49:00,
2013-06-14 02:54:00,66.4,53.0,29.32,ESE,105,8.0,9.0,62,0.00,CLR,,0.00,WeatherDisplay:10.37,2013-06-14 07:54:00,
2013-06-14 02:59:00,66.4,53.0,29.32,ESE,105,8.0,9.0,62,0.00,CLR,,0.00,WeatherDisplay:10.37,2013-06-14 07:59:00,
2013-06-14 03:04:00,64.8,52.3,29.32,ESE,105,8.0,9.0,64,0.00,CLR,,0.00,WeatherDisplay:10.37,2013-06-14 08:04:00,
2013-06-14 03:09:00,64.9,52.5,29.32,East,93,8.0,9.0,64,0.00,CLR,,0.00,WeatherDisplay:10.37,2013-06-14 08:09:00,
2013-06-14 03:14:00,64.4,52.0,29.32,ENE,78,8.0,8.0,64,0.00,CLR,,0.00,WeatherDisplay:10.37,2013-06-14 08:14:00,
2013-06-14 03:19:00,64.0,52.0,29.32,ENE,78,7.0,8.0,65,0.00,CLR,,0.00,WeatherDisplay:10.37,2013-06-14 08:19:00,
2013-06-14 03:24:00,64.0,52.0,29.32,ENE,77,7.0,7.0,65,0.00,CLR,,0.00,WeatherDisplay:10.37,2013-06-14 08:24:00,
2013-06-14 03:29:00,63.9,51.9,29.32,ENE,75,6.0,7.0,65,0.00,CLR,,0.00,WeatherDisplay:10.37,2013-06-14 08:29:00,
2013-06-14 03:34:00,63.9,51.9,29.32,ENE,75,6.0,6.0,65,0.00,CLR,,0.00,WeatherDisplay:10.37,2013-06-14 08:34:00,
2013-06-14 03:39:00,63.9,51.9,29.32,ENE,75,5.0,6.0,65,0.00,CLR,,0.00,WeatherDisplay:10.37,2013-06-14 08:39:00,
2013-06-14 03:44:00,63.7,51.7,29.32,ENE,78,5.0,5.0,65,0.00,CLR,,0.00,WeatherDisplay:10.37,2013-06-14 08:44:00,
2013-06-14 03:49:00,63.7,51.7,29.32,East,80,5.0,5.0,65,0.00,CLR,,0.00,WeatherDisplay:10.37,2013-06-14 08:49:00,
2013-06-14 03:54:00,63.7,51.7,29.32,East,80,5.0,5.0,65,0.00,CLR,,0.00,WeatherDisplay:10.37,2013-06-14 08:54:00,
2013-06-14 03:59:00,63.5,52.3,29.32,East,80,3.0,4.0,67,0.00,CLR,,0.00,WeatherDisplay:10.37,2013-06-14 08:59:00,
2013-06-14 04:04:00,63.5,52.3,29.32,East,80,3.0,4.0,67,0.00,CLR,,0.00,WeatherDisplay:10.37,2013-06-14 09:04:00,
2013-06-14 04:09:00,63.5,52.3,29.32,East,80,3.0,4.0,67,0.00,CLR,,0.00,WeatherDisplay:10.37,2013-06-14 09:09:00,
2013-06-14 04:14:00,63.3,52.2,29.32,East,80,3.0,3.0,67,0.00,CLR,,0.00,WeatherDisplay:10.37,2013-06-14 09:14:00,
2013-06-14 04:19:00,63.0,51.8,29.32,East,80,2.0,3.0,67,0.00,CLR,,0.00,WeatherDisplay:10.37,2013-06-14 09:19:00,
2013-06-14 04:24:00,63.0,51.8,29.32,East,80,2.0,2.0,67,0.00,CLR,,0.00,WeatherDisplay:10.37,2013-06-14 09:24:00,
2013-06-14 04:29:00,62.8,51.2,29.32,ENE,77,1.0,2.0,66,0.00,CLR,,0.00,WeatherDisplay:10.37,2013-06-14 09:29:00,
2013-06-14 04:34:00,62.6,51.5,29.32,ENE,75,1.0,2.0,67,0.00,CLR,,0.00,WeatherDisplay:10.37,2013-06-14 09:34:00,
2013-06-14 04:39:00,62.6,51.5,29.32,ENE,75,1.0,1.0,67,0.00,CLR,,0.00,WeatherDisplay:10.37,2013-06-14 09:39:00,
2013-06-14 04:44:00,62.6,51.9,29.32,ENE,75,1.0,1.0,68,0.00,CLR,,0.00,WeatherDisplay:10.37,2013-06-14 09:44:00,
2013-06-14 04:49:00,61.9,51.6,29.32,ENE,75,1.0,1.0,69,0.00,CLR,,0.00,WeatherDisplay:10.37,2013-06-14 09:49:00,
2013-06-14 04:54:00,61.7,51.4,29.32,ENE,75,1.0,1.0,69,0.00,CLR,,0.00,WeatherDisplay:10.37,2013-06-14 09:54:00,
2013-06-14 04:59:00,61.7,51.8,29.32,ENE,75,0.0,1.0,70,0.00,CLR,,0.00,WeatherDisplay:10.37,2013-06-14 09:59:00,
2013-06-14 05:04:00,61.5,51.6,29.32,ENE,75,0.0,1.0,70,0.00,CLR,,0.00,WeatherDisplay:10.37,2013-06-14 10:04:00,
2013-06-14 05:09:00,61.5,51.6,29.32,ENE,75,0.0,0.0,70,0.00,CLR,,0.00,WeatherDisplay:10.37,2013-06-14 10:09:00,
2013-06-14 05:14:00,61.5,52.0,29.32,ENE,75,0.0,0.0,71,0.00,CLR,,0.00,WeatherDisplay:10.37,2013-06-14 10:14:00,
2013-06-14 05:19:00,61.7,52.2,29.32,ENE,75,0.0,0.0,71,0.00,CLR,,0.00,WeatherDisplay:10.37,2013-06-14 10:19:00,
2013-06-14 05:24:00,61.9,52.4,29.32,East,80,0.0,0.0,71,0.00,CLR,,0.00,WeatherDisplay:10.37,2013-06-14 10:24:00,
2013-06-14 05:29:00,61.9,52.4,29.32,East,80,0.0,0.0,71,0.00,CLR,,0.00,WeatherDisplay:10.37,2013-06-14 10:29:00,
2013-06-14 05:34:00,61.7,52.2,29.35,East,80,0.0,0.0,71,0.00,CLR,,0.00,WeatherDisplay:10.37,2013-06-14 10:34:00,
2013-06-14 05:39:00,61.9,52.4,29.35,East,80,0.0,0.0,71,0.00,CLR,,0.00,WeatherDisplay:10.37,2013-06-14 10:39:00,
2013-06-14 05:44:00,62.1,52.5,29.32,NW,324,0.0,0.0,71,0.00,CLR,,0.00,WeatherDisplay:10.37,2013-06-14 10:44:00,
2013-06-14 05:49:00,62.1,52.5,29.35,WNW,285,0.0,0.0,71,0.00,CLR,,0.00,WeatherDisplay:10.37,2013-06-14 10:49:00,
2013-06-14 05:54:00,61.9,52.8,29.35,WNW,285,0.0,0.0,72,0.00,CLR,,0.00,WeatherDisplay:10.37,2013-06-14 10:54:00,
2013-06-14 05:59:00,61.7,53.3,29.35,WNW,285,0.0,0.0,74,0.00,CLR,,0.00,WeatherDisplay:10.37,2013-06-14 10:59:00,
2013-06-14 06:04:00,61.9,53.9,29.35,WNW,285,0.0,0.0,75,0.00,CLR,,0.00,WeatherDisplay:10.37,2013-06-14 11:04:00,
2013-06-14 06:09:00,61.9,53.9,29.35,WNW,285,0.0,0.0,75,0.00,CLR,,0.00,WeatherDisplay:10.37,2013-06-14 11:09:00,
2013-06-14 06:14:00,62.1,54.0,29.35,WNW,285,0.0,0.0,75,0.00,CLR,,0.00,WeatherDisplay:10.37,2013-06-14 11:14:00,
2013-06-14 06:19:00,61.9,53.5,29.35,WNW,285,0.0,0.0,74,0.00,CLR,,0.00,WeatherDisplay:10.37,2013-06-14 11:19:00,
2013-06-14 06:24:00,61.9,53.5,29.35,WNW,285,0.0,0.0,74,0.00,CLR,,0.00,WeatherDisplay:10.37,2013-06-14 11:24:00,
2013-06-14 06:29:00,62.2,53.8,29.35,WNW,285,0.0,0.0,74,0.00,CLR,,0.00,WeatherDisplay:10.37,2013-06-14 11:29:00,
2013-06-14 06:34:00,62.6,53.8,29.35,WNW,285,0.0,0.0,73,0.00,CLR,,0.00,WeatherDisplay:10.37,2013-06-14 11:34:00,
2013-06-14 06:39:00,63.0,54.2,29.35,WNW,285,0.0,0.0,73,0.00,CLR,,0.00,WeatherDisplay:10.37,2013-06-14 11:39:00,
2013-06-14 06:44:00,63.3,54.5,29.35,WNW,292,0.0,0.0,73,0.00,CLR,,0.00,WeatherDisplay:10.37,2013-06-14 11:44:00,
2013-06-14 06:49:00,64.0,54.8,29.35,WNW,302,0.0,0.0,72,0.00,CLR,,0.00,WeatherDisplay:10.37,2013-06-14 11:49:00,
2013-06-14 06:54:00,64.2,54.6,29.35,NW,305,0.0,0.0,71,0.00,CLR,,0.00,WeatherDisplay:10.37,2013-06-14 11:54:00,
2013-06-14 06:59:00,64.9,54.9,29.35,NW,305,0.0,0.0,70,0.00,CLR,,0.00,WeatherDisplay:10.37,2013-06-14 11:59:00,
2013-06-14 07:04:00,65.8,55.4,29.35,NNW,330,0.0,0.0,69,0.00,CLR,,0.00,WeatherDisplay:10.37,2013-06-14 12:04:00,
2013-06-14 07:09:00,66.2,54.9,29.35,NNW,342,0.0,0.0,67,0.00,CLR,,0.00,WeatherDisplay:10.37,2013-06-14 12:09:00,
2013-06-14 07:19:00,67.3,53.4,29.35,NNE,28,1.0,2.0,61,0.00,CLR,,0.00,WeatherDisplay:10.37,2013-06-14 12:19:00,
2013-06-14 07:24:00,67.3,53.4,29.35,NNE,32,1.0,2.0,61,0.00,CLR,,0.00,WeatherDisplay:10.37,2013-06-14 12:24:00,
2013-06-14 07:29:00,68.0,53.1,29.35,NE,37,2.0,3.0,59,0.00,CLR,,0.00,WeatherDisplay:10.37,2013-06-14 12:29:00,
2013-06-14 07:34:00,67.6,51.9,29.35,NE,46,3.0,3.0,57,0.00,CLR,,0.00,WeatherDisplay:10.37,2013-06-14 12:34:00,
2013-06-14 07:39:00,68.2,52.4,29.38,NE,42,3.0,4.0,57,0.00,CLR,,0.00,WeatherDisplay:10.37,2013-06-14 12:39:00,
2013-06-14 07:44:00,68.2,51.9,29.38,NNE,30,5.0,5.0,56,0.00,CLR,,0.00,WeatherDisplay:10.37,2013-06-14 12:44:00,
2013-06-14 07:49:00,68.7,52.4,29.38,NNE,29,5.0,5.0,56,0.00,CLR,,0.00,WeatherDisplay:10.37,2013-06-14 12:49:00,
2013-06-14 07:54:00,69.1,52.2,29.38,NNE,30,5.0,5.0,55,0.00,CLR,,0.00,WeatherDisplay:10.37,2013-06-14 12:54:00,
2013-06-14 08:04:00,68.9,52.1,29.38,NNE,30,6.0,6.0,55,0.00,CLR,,0.00,WeatherDisplay:10.37,2013-06-14 13:04:00,
2013-06-14 08:09:00,68.9,52.1,29.38,NNE,30,6.0,6.0,55,0.00,CLR,,0.00,WeatherDisplay:10.37,2013-06-14 13:09:00,
2013-06-14 08:14:00,69.1,51.7,29.38,NNE,29,6.0,6.0,54,0.00,CLR,,0.00,WeatherDisplay:10.37,2013-06-14 13:14:00,
2013-06-14 08:19:00,70.2,52.2,29.38,NNE,28,6.0,6.0,53,0.00,CLR,,0.00,WeatherDisplay:10.37,2013-06-14 13:19:00,
2013-06-14 08:24:00,70.2,52.2,29.38,NNE,27,6.0,6.0,53,0.00,CLR,,0.00,WeatherDisplay:10.37,2013-06-14 13:24:00,
2013-06-14 08:29:00,70.2,51.2,29.38,NE,47,6.0,6.0,51,0.00,CLR,,0.00,WeatherDisplay:10.37,2013-06-14 13:29:00,
2013-06-14 08:34:00,70.5,52.0,29.38,ENE,68,7.0,7.0,52,0.00,CLR,,0.00,WeatherDisplay:10.37,2013-06-14 13:34:00,
2013-06-14 08:39:00,70.9,52.4,29.38,ENE,66,7.0,7.0,52,0.00,CLR,,0.00,WeatherDisplay:10.37,2013-06-14 13:39:00,
2013-06-14 08:49:00,71.6,52.5,29.38,ENE,70,7.0,7.0,51,0.00,CLR,,0.00,WeatherDisplay:10.37,2013-06-14 13:49:00,
2013-06-14 08:54:00,71.6,52.5,29.38,ENE,70,7.0,7.0,51,0.00,CLR,,0.00,WeatherDisplay:10.37,2013-06-14 13:54:00,
2013-06-14 08:59:00,70.7,51.1,29.38,ENE,70,7.0,7.0,50,0.00,CLR,,0.00,WeatherDisplay:10.37,2013-06-14 13:59:00,
2013-06-14 09:04:00,70.9,51.8,29.38,ENE,70,7.0,7.0,51,0.00,CLR,,0.00,WeatherDisplay:10.37,2013-06-14 14:04:00,
2013-06-14 09:09:00,71.4,52.9,29.38,ENE,67,7.0,7.0,52,0.00,CLR,,0.00,WeatherDisplay:10.37,2013-06-14 14:09:00,
2013-06-14 09:14:00,71.1,52.5,29.38,NE,49,7.0,7.0,52,0.00,CLR,,0.00,WeatherDisplay:10.37,2013-06-14 14:14:00,
2013-06-14 09:19:00,71.6,53.0,29.38,NE,34,7.0,7.0,52,0.00,CLR,,0.00,WeatherDisplay:10.37,2013-06-14 14:19:00,
2013-06-14 09:24:00,72.0,52.8,29.38,NNE,33,7.0,7.0,51,0.00,CLR,,0.00,WeatherDisplay:10.37,2013-06-14 14:24:00,
2013-06-14 09:29:00,73.2,54.5,29.38,NE,35,8.0,8.0,52,0.00,CLR,,0.00,WeatherDisplay:10.37,2013-06-14 14:29:00,
2013-06-14 09:34:00,73.4,52.5,29.38,NE,43,8.0,8.0,48,0.00,CLR,,0.00,WeatherDisplay:10.37,2013-06-14 14:34:00,
2013-06-14 09:39:00,73.4,53.6,29.38,NE,44,8.0,8.0,50,0.00,CLR,,0.00,WeatherDisplay:10.37,2013-06-14 14:39:00,
2013-06-14 09:44:00,72.9,52.6,29.38,NE,40,8.0,8.0,49,0.00,CLR,,0.00,WeatherDisplay:10.37,2013-06-14 14:44:00,
2013-06-14 09:49:00,72.9,53.1,29.38,NE,40,8.0,8.0,50,0.00,CLR,,0.00,WeatherDisplay:10.37,2013-06-14 14:49:00,
2013-06-14 09:54:00,72.5,52.2,29.38,NE,40,8.0,8.0,49,0.00,CLR,,0.00,WeatherDisplay:10.37,2013-06-14 14:54:00,
2013-06-14 09:59:00,73.8,53.4,29.38,NE,40,8.0,8.0,49,0.00,CLR,,0.00,WeatherDisplay:10.37,2013-06-14 14:59:00,
2013-06-14 10:04:00,73.8,52.3,29.38,NE,40,8.0,8.0,47,0.00,CLR,,0.00,WeatherDisplay:10.37,2013-06-14 15:04:00,
2013-06-14 10:09:00,73.9,51.8,29.38,NE,40,8.0,9.0,46,0.00,CLR,,0.00,WeatherDisplay:10.37,2013-06-14 15:09:00,
2013-06-14 10:14:00,74.7,53.1,29.38,NE,46,9.0,9.0,47,0.00,CLR,,0.00,WeatherDisplay:10.37,2013-06-14 15:14:00,
2013-06-14 10:19:00,74.7,52.5,29.38,NE,55,9.0,9.0,46,0.00,CLR,,0.00,WeatherDisplay:10.37,2013-06-14 15:19:00,
2013-06-14 10:24:00,73.9,51.3,29.38,NE,55,9.0,9.0,45,0.00,CLR,,0.00,WeatherDisplay:10.37,2013-06-14 15:24:00,
2013-06-14 10:29:00,74.3,53.3,29.35,NE,55,9.0,9.0,48,0.00,CLR,,0.00,WeatherDisplay:10.37,2013-06-14 15:29:00,
2013-06-14 10:34:00,74.5,52.3,29.35,NE,55,10.0,10.0,46,0.00,CLR,,0.00,WeatherDisplay:10.37,2013-06-14 15:34:00,
2013-06-14 10:39:00,75.4,53.7,29.35,NE,55,10.0,10.0,47,0.00,CLR,,0.00,WeatherDisplay:10.37,2013-06-14 15:39:00,
2013-06-14 10:44:00,75.4,53.7,29.35,NE,55,10.0,10.0,47,0.00,CLR,,0.00,WeatherDisplay:10.37,2013-06-14 15:44:00,
2013-06-14 10:49:00,76.1,53.2,29.35,NE,55,10.0,10.0,45,0.00,CLR,,0.00,WeatherDisplay:10.37,2013-06-14 15:49:00,
2013-06-14 10:54:00,76.3,52.8,29.35,NE,55,10.0,10.0,44,0.00,CLR,,0.00,WeatherDisplay:10.37,2013-06-14 15:54:00,
2013-06-14 10:59:00,76.8,53.9,29.35,NE,55,10.0,10.0,45,0.00,CLR,,0.00,WeatherDisplay:10.37,2013-06-14 15:59:00,
2013-06-14 11:04:00,77.5,53.9,29.35,NE,55,10.0,11.0,44,0.00,CLR,,0.00,WeatherDisplay:10.37,2013-06-14 16:04:00,
2013-06-14 11:09:00,77.9,54.2,29.35,ENE,69,10.0,11.0,44,0.00,CLR,,0.00,WeatherDisplay:10.37,2013-06-14 16:09:00,
2013-06-14 11:14:00,77.9,53.6,29.35,East,90,10.0,10.0,43,0.00,CLR,,0.00,WeatherDisplay:10.37,2013-06-14 16:14:00,
2013-06-14 11:19:00,77.7,52.8,29.35,East,90,10.0,10.0,42,0.00,CLR,,0.00,WeatherDisplay:10.37,2013-06-14 16:19:00,
2013-06-14 11:24:00,78.1,52.5,29.35,East,90,10.0,10.0,41,0.00,CLR,,0.00,WeatherDisplay:10.37,2013-06-14 16:24:00,
2013-06-14 11:29:00,78.1,53.1,29.35,East,90,9.0,10.0,42,0.00,CLR,,0.00,WeatherDisplay:10.37,2013-06-14 16:29:00,
2013-06-14 11:34:00,78.1,53.8,29.35,East,90,9.0,10.0,43,0.00,CLR,,0.00,WeatherDisplay:10.37,2013-06-14 16:34:00,
2013-06-14 11:39:00,78.6,53.6,29.35,East,90,9.0,10.0,42,0.00,CLR,,0.00,WeatherDisplay:10.37,2013-06-14 16:39:00,
2013-06-14 11:44:00,78.8,53.1,29.35,East,90,9.0,9.0,41,0.00,CLR,,0.00,WeatherDisplay:10.37,2013-06-14 16:44:00,
2013-06-14 11:49:00,79.7,53.9,29.35,East,90,9.0,9.0,41,0.00,CLR,,0.00,WeatherDisplay:10.37,2013-06-14 16:49:00,
2013-06-14 11:54:00,79.7,54.6,29.35,East,88,9.0,9.0,42,0.00,CLR,,0.00,WeatherDisplay:10.37,2013-06-14 16:54:00,
2013-06-14 11:59:00,79.3,53.6,29.35,ENE,76,9.0,9.0,41,0.00,CLR,,0.00,WeatherDisplay:10.37,2013-06-14 16:59:00,
2013-06-14 12:04:00,80.6,55.4,29.35,ENE,70,9.0,9.0,42,0.00,CLR,,0.00,WeatherDisplay:10.37,2013-06-14 17:04:00,
2013-06-14 12:09:00,80.2,55.1,29.35,ENE,70,9.0,9.0,42,0.00,CLR,,0.00,WeatherDisplay:10.37,2013-06-14 17:09:00,
2013-06-14 12:14:00,79.9,53.4,29.35,ENE,70,8.0,8.0,40,0.00,CLR,,0.00,WeatherDisplay:10.37,2013-06-14 17:14:00,
2013-06-14 12:19:00,80.2,55.7,29.35,ENE,70,8.0,8.0,43,0.00,CLR,,0.00,WeatherDisplay:10.37,2013-06-14 17:19:00,
2013-06-14 12:24:00,80.2,53.7,29.35,ENE,70,8.0,8.0,40,0.00,CLR,,0.00,WeatherDisplay:10.37,2013-06-14 17:24:00,
2013-06-14 12:29:00,80.1,54.9,29.35,NNW,331,8.0,8.0,42,0.00,CLR,,0.00,WeatherDisplay:10.37,2013-06-14 17:29:00,
2013-06-14 12:34:00,80.8,55.5,29.35,NW,305,8.0,8.0,42,0.00,CLR,,0.00,WeatherDisplay:10.37,2013-06-14 17:34:00,
2013-06-14 12:39:00,81.9,55.9,29.35,NW,309,7.0,8.0,41,0.00,CLR,,0.00,WeatherDisplay:10.37,2013-06-14 17:39:00,
2013-06-14 12:44:00,82.6,55.1,29.35,NW,315,7.0,7.0,39,0.00,CLR,,0.00,WeatherDisplay:10.37,2013-06-14 17:44:00,
2013-06-14 12:49:00,81.1,53.8,29.35,WNW,296,6.0,7.0,39,0.00,CLR,,0.00,WeatherDisplay:10.37,2013-06-14 17:49:00,
2013-06-14 12:54:00,82.2,55.5,29.35,WNW,298,6.0,6.0,40,0.00,CLR,,0.00,WeatherDisplay:10.37,2013-06-14 17:54:00,
2013-06-14 12:59:00,80.2,53.0,29.35,NNW,330,6.0,6.0,39,0.00,CLR,,0.00,WeatherDisplay:10.37,2013-06-14 17:59:00,
2013-06-14 13:04:00,80.6,54.0,29.35,NNW,345,6.0,6.0,40,0.00,CLR,,0.00,WeatherDisplay:10.37,2013-06-14 18:04:00,
2013-06-14 13:09:00,81.7,56.4,29.35,NNW,345,6.0,6.0,42,0.00,CLR,,0.00,WeatherDisplay:10.37,2013-06-14 18:09:00,
2013-06-14 13:14:00,81.0,54.4,29.35,NNW,339,6.0,6.0,40,0.00,CLR,,0.00,WeatherDisplay:10.37,2013-06-14 18:14:00,
2013-06-14 13:19:00,81.9,55.2,29.35,NW,316,6.0,6.0,40,0.00,CLR,,0.00,WeatherDisplay:10.37,2013-06-14 18:19:00,
2013-06-14 13:24:00,81.1,53.8,29.35,NW,310,6.0,6.0,39,0.00,CLR,,0.00,WeatherDisplay:10.37,2013-06-14 18:24:00,
2013-06-14 13:29:00,81.7,55.0,29.35,NW,310,6.0,6.0,40,0.00,CLR,,0.00,WeatherDisplay:10.37,2013-06-14 18:29:00,
2013-06-14 13:34:00,81.3,54.7,29.35,NNW,328,6.0,6.0,40,0.00,CLR,,0.00,WeatherDisplay:10.37,2013-06-14 18:34:00,
2013-06-14 13:39:00,81.7,54.3,29.35,NNW,331,6.0,6.0,39,0.00,CLR,,0.00,WeatherDisplay:10.37,2013-06-14 18:39:00,
2013-06-14 13:44:00,82.0,55.3,29.32,NW,325,6.0,6.0,40,0.00,CLR,,0.00,WeatherDisplay:10.37,2013-06-14 18:44:00,
2013-06-14 13:49:00,82.6,54.4,29.35,NW,325,5.0,6.0,38,0.00,CLR,,0.00,WeatherDisplay:10.37,2013-06-14 18:49:00,
2013-06-14 13:54:00,82.9,56.1,29.35,NNW,327,5.0,5.0,40,0.00,CLR,,0.00,WeatherDisplay:10.37,2013-06-14 18:54:00,
2013-06-14 13:59:00,82.4,54.2,29.35,NNW,334,3.0,4.0,38,0.00,CLR,,0.00,WeatherDisplay:10.37,2013-06-14 18:59:00,
2013-06-14 14:04:00,82.6,55.8,29.35,NNW,340,5.0,5.0,40,0.00,CLR,,0.00,WeatherDisplay:10.37,2013-06-14 19:04:00,
2013-06-14 14:09:00,82.0,54.6,29.35,NNW,340,5.0,5.0,39,0.00,CLR,,0.00,WeatherDisplay:10.37,2013-06-14 19:09:00,
2013-06-14 14:14:00,81.7,54.3,29.35,NNW,342,5.0,5.0,39,0.00,CLR,,0.00,WeatherDisplay:10.37,2013-06-14 19:14:00,
2013-06-14 14:19:00,81.7,54.3,29.35,North,353,5.0,5.0,39,0.00,CLR,,0.00,WeatherDisplay:10.37,2013-06-14 19:19:00,
2013-06-14 14:24:00,81.7,54.3,29.35,North,359,5.0,5.0,39,0.00,CLR,,0.00,WeatherDisplay:10.37,2013-06-14 19:24:00,
2013-06-14 14:29:00,81.5,54.8,29.35,North,354,6.0,6.0,40,0.00,CLR,,0.00,WeatherDisplay:10.37,2013-06-14 19:29:00,
2013-06-14 14:34:00,82.0,55.3,29.35,North,350,6.0,6.0,40,0.00,CLR,,0.00,WeatherDisplay:10.37,2013-06-14 19:34:00,
2013-06-14 14:39:00,82.8,55.3,29.35,North,353,7.0,7.0,39,0.00,CLR,,0.00,WeatherDisplay:10.37,2013-06-14 19:39:00,
2013-06-14 14:44:00,82.2,54.8,29.35,North,8,7.0,7.0,39,0.00,CLR,,0.00,WeatherDisplay:10.37,2013-06-14 19:44:00,
2013-06-14 14:49:00,82.8,55.3,29.35,North,357,7.0,7.0,39,0.00,CLR,,0.00,WeatherDisplay:10.37,2013-06-14 19:49:00,
2013-06-14 14:54:00,82.0,54.6,29.35,North,358,7.0,7.0,39,0.00,CLR,,0.00,WeatherDisplay:10.37,2013-06-14 19:54:00,
2013-06-14 14:59:00,82.8,55.3,29.35,North,351,8.0,8.0,39,0.00,CLR,,0.00,WeatherDisplay:10.37,2013-06-14 19:59:00,
2013-06-14 15:04:00,82.4,53.5,29.35,NNW,338,8.0,8.0,37,0.00,CLR,,0.00,WeatherDisplay:10.37,2013-06-14 20:04:00,
2013-06-14 15:09:00,83.1,54.1,29.35,NNW,335,8.0,8.0,37,0.00,CLR,,0.00,WeatherDisplay:10.37,2013-06-14 20:09:00,
2013-06-14 15:14:00,83.8,54.0,29.35,NNW,335,8.0,8.0,36,0.00,CLR,,0.00,WeatherDisplay:10.37,2013-06-14 20:14:00,
2013-06-14 15:19:00,83.7,54.6,29.35,NNW,335,8.0,8.0,37,0.00,CLR,,0.00,WeatherDisplay:10.37,2013-06-14 20:19:00,
2013-06-14 15:24:00,83.5,53.7,29.35,NNW,335,8.0,9.0,36,0.00,CLR,,0.00,WeatherDisplay:10.37,2013-06-14 20:24:00,
2013-06-14 15:29:00,82.4,53.5,29.35,NNW,335,9.0,9.0,37,0.00,CLR,,0.00,WeatherDisplay:10.37,2013-06-14 20:29:00,
2013-06-14 15:34:00,81.9,53.0,29.35,NNW,335,9.0,9.0,37,0.00,CLR,,0.00,WeatherDisplay:10.37,2013-06-14 20:34:00,
2013-06-14 15:39:00,82.0,52.4,29.35,NNW,335,9.0,9.0,36,0.00,CLR,,0.00,WeatherDisplay:10.37,2013-06-14 20:39:00,
2013-06-14 15:44:00,81.9,53.0,29.35,NNW,335,9.0,9.0,37,0.00,CLR,,0.00,WeatherDisplay:10.37,2013-06-14 20:44:00,
2013-06-14 15:49:00,82.0,53.2,29.35,NNW,345,9.0,9.0,37,0.00,CLR,,0.00,WeatherDisplay:10.37,2013-06-14 20:49:00,
2013-06-14 15:54:00,82.0,53.2,29.35,North,356,9.0,9.0,37,0.00,CLR,,0.00,WeatherDisplay:10.37,2013-06-14 20:54:00,
2013-06-14 15:59:00,82.2,55.5,29.32,North,10,8.0,9.0,40,0.00,CLR,,0.00,WeatherDisplay:10.37,2013-06-14 20:59:00,
2013-06-14 16:04:00,82.2,56.2,29.32,North,10,8.0,8.0,41,0.00,CLR,,0.00,WeatherDisplay:10.37,2013-06-14 21:04:00,
2013-06-14 16:09:00,81.7,54.3,29.32,North,10,8.0,8.0,39,0.00,CLR,,0.00,WeatherDisplay:10.37,2013-06-14 21:09:00,
2013-06-14 16:14:00,81.3,54.0,29.32,North,10,7.0,8.0,39,0.00,CLR,,0.00,WeatherDisplay:10.37,2013-06-14 21:14:00,
2013-06-14 16:19:00,81.1,53.8,29.32,North,10,7.0,7.0,39,0.00,CLR,,0.00,WeatherDisplay:10.37,2013-06-14 21:19:00,
2013-06-14 16:24:00,81.0,53.7,29.32,North,358,7.0,7.0,39,0.00,CLR,,0.00,WeatherDisplay:10.37,2013-06-14 21:24:00,
2013-06-14 16:29:00,81.3,53.3,29.32,NNW,340,7.0,7.0,38,0.00,CLR,,0.00,WeatherDisplay:10.37,2013-06-14 21:29:00,
2013-06-14 16:34:00,80.8,52.1,29.29,NNW,340,6.0,7.0,37,0.00,CLR,,0.00,WeatherDisplay:10.37,2013-06-14 21:34:00,
2013-06-14 16:39:00,81.1,53.8,29.29,NNW,340,6.0,6.0,39,0.00,CLR,,0.00,WeatherDisplay:10.37,2013-06-14 21:39:00,
2013-06-14 16:44:00,81.5,54.8,29.29,WNW,303,5.0,6.0,40,0.00,CLR,,0.00,WeatherDisplay:10.37,2013-06-14 21:44:00,
2013-06-14 16:49:00,81.3,54.7,29.29,SW,224,5.0,5.0,40,0.00,CLR,,0.00,WeatherDisplay:10.37,2013-06-14 21:49:00,
2013-06-14 16:54:00,81.3,55.4,29.29,SW,224,5.0,5.0,41,0.00,CLR,,0.00,WeatherDisplay:10.37,2013-06-14 21:54:00,
2013-06-14 16:59:00,81.0,55.0,29.29,SW,224,3.0,4.0,41,0.00,CLR,,0.00,WeatherDisplay:10.37,2013-06-14 21:59:00,
2013-06-14 17:04:00,81.0,54.4,29.26,SW,224,2.0,3.0,40,0.00,CLR,,0.00,WeatherDisplay:10.37,2013-06-14 22:04:00,
2013-06-14 17:09:00,81.0,54.4,29.26,SW,224,2.0,3.0,40,0.00,CLR,,0.00,WeatherDisplay:10.37,2013-06-14 22:09:00,
2013-06-14 17:14:00,80.8,54.2,29.26,SW,224,2.0,2.0,40,0.00,CLR,,0.00,WeatherDisplay:10.37,2013-06-14 22:14:00,
2013-06-14 17:19:00,80.8,53.5,29.26,SE,141,2.0,2.0,39,0.00,CLR,,0.00,WeatherDisplay:10.37,2013-06-14 22:19:00,
2013-06-14 17:24:00,81.0,54.4,29.26,ESE,120,2.0,3.0,40,0.00,CLR,,0.00,WeatherDisplay:10.37,2013-06-14 22:24:00,
2013-06-14 17:29:00,81.1,53.8,29.26,ESE,120,3.0,3.0,39,0.00,CLR,,0.00,WeatherDisplay:10.37,2013-06-14 22:29:00,
2013-06-14 17:34:00,81.1,53.8,29.24,ESE,120,5.0,5.0,39,0.00,CLR,,0.00,WeatherDisplay:10.37,2013-06-14 22:34:00,
2013-06-14 17:39:00,81.0,53.7,29.24,SE,133,5.0,5.0,39,0.00,CLR,,0.00,WeatherDisplay:10.37,2013-06-14 22:39:00,
2013-06-14 17:44:00,81.5,54.8,29.24,SSE,150,6.0,6.0,40,0.00,CLR,,0.00,WeatherDisplay:10.37,2013-06-14 22:44:00,
2013-06-14 17:49:00,81.7,55.0,29.20,SE,146,7.0,7.0,40,0.00,CLR,,0.00,WeatherDisplay:10.37,2013-06-14 22:49:00,
2013-06-14 17:54:00,81.7,55.0,29.20,SE,143,7.0,7.0,40,0.00,CLR,,0.00,WeatherDisplay:10.37,2013-06-14 22:54:00,
2013-06-14 17:59:00,81.7,55.0,29.24,SE,140,8.0,8.0,40,0.00,CLR,,0.00,WeatherDisplay:10.37,2013-06-14 22:59:00,
2013-06-14 18:04:00,81.7,54.3,29.24,SE,137,8.0,8.0,39,0.00,CLR,,0.00,WeatherDisplay:10.37,2013-06-14 23:04:00,
2013-06-14 18:09:00,81.9,55.2,29.24,SE,134,8.0,8.0,40,0.00,CLR,,0.00,WeatherDisplay:10.37,2013-06-14 23:09:00,
2013-06-14 18:14:00,81.7,52.1,29.24,SE,142,8.0,8.0,36,0.00,CLR,,0.00,WeatherDisplay:10.37,2013-06-14 23:14:00,
2013-06-14 18:19:00,81.7,52.1,29.24,SSE,164,9.0,9.0,36,0.00,CLR,,0.00,WeatherDisplay:10.37,2013-06-14 23:19:00,
2013-06-14 18:24:00,81.5,52.0,29.24,SSE,163,9.0,9.0,36,0.00,CLR,,0.00,WeatherDisplay:10.37,2013-06-14 23:24:00,
2013-06-14 18:29:00,81.5,52.0,29.24,SSE,152,9.0,9.0,36,0.00,CLR,,0.00,WeatherDisplay:10.37,2013-06-14 23:29:00,
2013-06-14 18:34:00,81.7,52.1,29.24,SSE,151,9.0,9.0,36,0.00,CLR,,0.00,WeatherDisplay:10.37,2013-06-14 23:34:00,
2013-06-14 18:39:00,82.0,53.2,29.26,SSE,157,8.0,9.0,37,0.00,CLR,,0.00,WeatherDisplay:10.37,2013-06-14 23:39:00,
2013-06-14 18:44:00,82.2,53.4,29.26,SSW,204,8.0,9.0,37,0.00,CLR,,0.00,WeatherDisplay:10.37,2013-06-14 23:44:00,
2013-06-14 18:49:00,82.8,53.1,29.26,WSW,257,7.0,8.0,36,0.00,CLR,,0.00,WeatherDisplay:10.37,2013-06-14 23:49:00,
2013-06-14 18:54:00,82.6,52.2,29.26,West,273,7.0,7.0,35,0.00,CLR,,0.00,WeatherDisplay:10.37,2013-06-14 23:54:00,
2013-06-14 18:59:00,82.6,52.2,29.26,West,273,6.0,6.0,35,0.00,CLR,,0.00,WeatherDisplay:10.37,2013-06-14 23:59:00,
2013-06-14 19:04:00,82.4,52.8,29.26,West,267,5.0,6.0,36,0.00,CLR,,0.00,WeatherDisplay:10.37,2013-06-15 00:04:00,
2013-06-14 19:09:00,82.4,53.5,29.26,West,265,3.0,5.0,37,0.00,CLR,,0.00,WeatherDisplay:10.37,2013-06-15 00:09:00,
2013-06-14 19:14:00,81.0,53.7,29.26,West,265,3.0,3.0,39,0.00,CLR,,0.00,WeatherDisplay:10.37,2013-06-15 00:14:00,
2013-06-14 19:19:00,79.7,53.2,29.26,West,262,2.0,3.0,40,0.00,CLR,,0.00,WeatherDisplay:10.37,2013-06-15 00:19:00,
2013-06-14 19:24:00,79.2,52.8,29.26,West,260,2.0,2.0,40,0.00,CLR,,0.00,WeatherDisplay:10.37,2013-06-15 00:24:00,
2013-06-14 19:29:00,79.0,53.3,29.26,West,260,2.0,2.0,41,0.00,CLR,,0.00,WeatherDisplay:10.37,2013-06-15 00:29:00,
2013-06-14 19:34:00,77.7,55.9,29.26,West,260,1.0,2.0,47,0.00,CLR,,0.00,WeatherDisplay:10.37,2013-06-15 00:34:00,
2013-06-14 19:39:00,77.4,54.4,29.26,West,260,1.0,1.0,45,0.00,CLR,,0.00,WeatherDisplay:10.37,2013-06-15 00:39:00,
2013-06-14 19:44:00,77.2,52.3,29.26,West,260,1.0,1.0,42,0.00,CLR,,0.00,WeatherDisplay:10.37,2013-06-15 00:44:00,
2013-06-14 19:49:00,77.2,52.9,29.26,West,260,1.0,1.0,43,0.00,CLR,,0.00,WeatherDisplay:10.37,2013-06-15 00:49:00,
2013-06-14 19:54:00,77.0,54.6,29.26,West,260,1.0,1.0,46,0.00,CLR,,0.00,WeatherDisplay:10.37,2013-06-15 00:54:00,
2013-06-14 19:59:00,76.5,55.9,29.26,West,260,1.0,1.0,49,0.00,CLR,,0.00,WeatherDisplay:10.37,2013-06-15 00:59:00,
2013-06-14 20:04:00,76.3,56.8,29.26,West,260,0.0,1.0,51,0.00,CLR,,0.00,WeatherDisplay:10.37,2013-06-15 01:04:00,
2013-06-14 20:09:00,76.1,56.1,29.26,West,260,0.0,0.0,50,0.00,CLR,,0.00,WeatherDisplay:10.37,2013-06-15 01:09:00,
2013-06-14 20:14:00,75.9,57.6,29.26,West,261,0.0,0.0,53,0.00,CLR,,0.00,WeatherDisplay:10.37,2013-06-15 01:14:00,
2013-06-14 20:19:00,75.6,56.2,29.26,West,265,0.0,0.0,51,0.00,CLR,,0.00,WeatherDisplay:10.37,2013-06-15 01:19:00,
2013-06-14 20:24:00,75.4,56.0,29.26,West,265,0.0,0.0,51,0.00,CLR,,0.00,WeatherDisplay:10.37,2013-06-15 01:24:00,
2013-06-14 20:29:00,75.2,55.3,29.26,West,260,0.0,0.0,50,0.00,CLR,,0.00,WeatherDisplay:10.37,2013-06-15 01:29:00,
2013-06-14 20:34:00,75.2,55.8,29.26,West,260,0.0,0.0,51,0.00,CLR,,0.00,WeatherDisplay:10.37,2013-06-15 01:34:00,
2013-06-14 20:39:00,75.0,55.7,29.26,West,260,0.0,0.0,51,0.00,CLR,,0.00,WeatherDisplay:10.37,2013-06-15 01:39:00,
2013-06-14 20:44:00,75.0,55.1,29.26,West,260,0.0,0.0,50,0.00,CLR,,0.00,WeatherDisplay:10.37,2013-06-15 01:44:00,
2013-06-14 20:49:00,74.5,57.3,29.26,West,262,0.0,0.0,55,0.00,CLR,,0.00,WeatherDisplay:10.37,2013-06-15 01:49:00,
2013-06-14 20:54:00,74.3,56.1,29.26,West,261,0.0,0.0,53,0.00,CLR,,0.00,WeatherDisplay:10.37,2013-06-15 01:54:00,
2013-06-14 20:59:00,73.9,55.2,29.26,West,260,0.0,0.0,52,0.00,CLR,,0.00,WeatherDisplay:10.37,2013-06-15 01:59:00,
2013-06-14 21:04:00,74.1,55.4,29.29,West,260,0.0,0.0,52,0.00,CLR,,0.00,WeatherDisplay:10.37,2013-06-15 02:04:00,
2013-06-14 21:09:00,74.1,55.4,29.29,West,260,0.0,0.0,52,0.00,CLR,,0.00,WeatherDisplay:10.37,2013-06-15 02:09:00,
2013-06-14 21:14:00,74.7,54.2,29.29,West,260,0.0,0.0,49,0.00,CLR,,0.00,WeatherDisplay:10.37,2013-06-15 02:14:00,
2013-06-14 21:19:00,75.4,53.7,29.29,WSW,250,0.0,0.0,47,0.00,CLR,,0.00,WeatherDisplay:10.37,2013-06-15 02:19:00,
2013-06-14 21:24:00,75.4,53.7,29.29,WSW,240,0.0,0.0,47,0.00,CLR,,0.00,WeatherDisplay:10.37,2013-06-15 02:24:00,
2013-06-14 21:29:00,75.0,54.0,29.29,SW,230,0.0,0.0,48,0.00,CLR,,0.00,WeatherDisplay:10.37,2013-06-15 02:29:00,
2013-06-14 21:34:00,75.2,53.0,29.29,SW,230,0.0,0.0,46,0.00,CLR,,0.00,WeatherDisplay:10.37,2013-06-15 02:34:00,
2013-06-14 21:39:00,75.4,53.2,29.29,SW,230,0.0,0.0,46,0.00,CLR,,0.00,WeatherDisplay:10.37,2013-06-15 02:39:00,
2013-06-14 21:44:00,75.4,52.6,29.29,SW,230,0.0,0.0,45,0.00,CLR,,0.00,WeatherDisplay:10.37,2013-06-15 02:44:00,
2013-06-14 21:49:00,75.4,52.6,29.29,SW,230,0.0,0.0,45,0.00,CLR,,0.00,WeatherDisplay:10.37,2013-06-15 02:49:00,
2013-06-14 21:54:00,75.4,52.6,29.29,SW,230,0.0,0.0,45,0.00,CLR,,0.00,WeatherDisplay:10.37,2013-06-15 02:54:00,
2013-06-14 21:59:00,75.2,52.4,29.29,SW,230,0.0,0.0,45,0.00,CLR,,0.00,WeatherDisplay:10.37,2013-06-15 02:59:00,
2013-06-14 22:04:00,75.0,52.8,29.29,SW,230,0.0,0.0,46,0.00,CLR,,0.00,WeatherDisplay:10.37,2013-06-15 03:04:00,
2013-06-14 22:09:00,75.0,53.4,29.29,SW,230,0.0,0.0,47,0.00,CLR,,0.00,WeatherDisplay:10.37,2013-06-15 03:09:00,
2013-06-14 22:14:00,74.8,53.3,29.29,SW,230,0.0,0.0,47,0.00,CLR,,0.00,WeatherDisplay:10.37,2013-06-15 03:14:00,
2013-06-14 22:19:00,74.3,52.8,29.29,SW,230,0.0,0.0,47,0.00,CLR,,0.00,WeatherDisplay:10.37,2013-06-15 03:19:00,
2013-06-14 22:24:00,74.3,52.8,29.29,SW,230,0.0,0.0,47,0.00,CLR,,0.00,WeatherDisplay:10.37,2013-06-15 03:24:00,
2013-06-14 22:29:00,74.1,53.2,29.29,SW,230,0.0,0.0,48,0.00,CLR,,0.00,WeatherDisplay:10.37,2013-06-15 03:29:00,
2013-06-14 22:34:00,73.6,52.7,29.29,SW,230,0.0,0.0,48,0.00,CLR,,0.00,WeatherDisplay:10.37,2013-06-15 03:34:00,
2013-06-14 22:39:00,73.2,52.9,29.29,SW,230,0.0,0.0,49,0.00,CLR,,0.00,WeatherDisplay:10.37,2013-06-15 03:39:00,
2013-06-14 22:44:00,72.7,53.5,29.29,SW,230,0.0,0.0,51,0.00,CLR,,0.00,WeatherDisplay:10.37,2013-06-15 03:44:00,
2013-06-14 22:49:00,72.5,56.9,29.29,SW,230,0.0,0.0,58,0.00,CLR,,0.00,WeatherDisplay:10.37,2013-06-15 03:49:00,
2013-06-14 22:54:00,72.0,56.8,29.29,SW,230,0.0,0.0,59,0.00,CLR,,0.00,WeatherDisplay:10.37,2013-06-15 03:54:00,
2013-06-14 22:59:00,72.0,56.4,29.29,SW,230,0.0,0.0,58,0.00,CLR,,0.00,WeatherDisplay:10.37,2013-06-15 03:59:00,
2013-06-14 23:04:00,71.8,56.2,29.29,SW,230,0.0,0.0,58,0.00,CLR,,0.00,WeatherDisplay:10.37,2013-06-15 04:04:00,
2013-06-14 23:09:00,71.8,55.7,29.29,SW,230,0.0,0.0,57,0.00,CLR,,0.00,WeatherDisplay:10.37,2013-06-15 04:09:00,
2013-06-14 23:14:00,71.8,55.2,29.29,SW,230,0.0,0.0,56,0.00,CLR,,0.00,WeatherDisplay:10.37,2013-06-15 04:14:00,
2013-06-14 23:19:00,71.4,55.9,29.29,SW,230,0.0,0.0,58,0.00,CLR,,0.00,WeatherDisplay:10.37,2013-06-15 04:19:00,
2013-06-14 23:24:00,71.1,55.5,29.29,SW,230,0.0,0.0,58,0.00,CLR,,0.00,WeatherDisplay:10.37,2013-06-15 04:24:00,
2013-06-14 23:29:00,71.1,55.5,29.29,SW,230,0.0,0.0,58,0.00,CLR,,0.00,WeatherDisplay:10.37,2013-06-15 04:29:00,
2013-06-14 23:34:00,71.2,55.2,29.29,SW,230,0.0,0.0,57,0.00,CLR,,0.00,WeatherDisplay:10.37,2013-06-15 04:34:00,
2013-06-14 23:39:00,71.2,55.2,29.29,SW,230,0.0,0.0,57,0.00,CLR,,0.00,WeatherDisplay:10.37,2013-06-15 04:39:00,
2013-06-14 23:44:00,71.4,54.9,29.29,SW,230,0.0,0.0,56,0.00,CLR,,0.00,WeatherDisplay:10.37,2013-06-15 04:44:00,
2013-06-14 23:49:00,71.6,54.6,29.29,SW,230,0.0,0.0,55,0.00,CLR,,0.00,WeatherDisplay:10.37,2013-06-15 04:49:00,
2013-06-14 23:54:00,71.2,54.7,29.29,SW,230,0.0,0.0,56,0.00,CLR,,0.00,WeatherDisplay:10.37,2013-06-15 04:54:00,
2013-06-14 23:59:00,70.9,54.9,29.26,SW,230,0.0,0.0,57,0.00,CLR,,0.00,WeatherDisplay:10.37,2013-06-15 04:59:00,